Time,TemperatureF,DewpointF,PressureIn,WindDirection,WindDirectionDegrees,WindSpeedMPH,WindSpeedGustMPH,Humidity,HourlyPrecipIn,Conditions,Clouds,dailyrainin,SolarRadiationWatts/m^2,SoftwareType,DateUTC
2013-11-18 00:11:00,27.0,24.0,-100.00,SW,215,6.0,17.0,88,0.00,,,0.00,0.000000,,2013-11-18 07:11:00,
2013-11-18 00:21:00,27.0,24.0,-100.00,SW,215,6.0,17.0,88,0.00,,,0.00,0.000000,,2013-11-18 07:21:00,
2013-11-18 00:32:00,27.0,24.0,-100.00,SW,215,6.0,17.0,88,0.00,,,0.00,0.000000,,2013-11-18 07:32:00,
2013-11-18 01:11:00,26.0,23.0,-100.00,SW,219,6.0,21.0,89,0.00,,,0.00,0.000000,,2013-11-18 08:11:00,
2013-11-18 01:21:00,26.0,23.0,-100.00,SW,219,6.0,21.0,89,0.00,,,0.00,0.000000,,2013-11-18 08:21:00,
2013-11-18 01:32:00,26.0,23.0,-100.00,SW,219,6.0,21.0,89,0.00,,,0.00,0.000000,,2013-11-18 08:32:00,
2013-11-18 02:12:00,27.0,24.0,-100.00,SW,214,6.0,21.0,89,0.00,,,0.00,0.000000,,2013-11-18 09:12:00,
2013-11-18 02:22:00,27.0,24.0,-100.00,SW,214,6.0,21.0,89,0.00,,,0.00,0.000000,,2013-11-18 09:22:00,
2013-11-18 02:33:00,27.0,24.0,-100.00,SW,214,6.0,21.0,89,0.00,,,0.00,0.000000,,2013-11-18 09:33:00,
2013-11-18 03:13:00,27.0,24.0,-100.00,SW,221,6.0,19.0,90,0.00,,,0.00,0.000000,,2013-11-18 10:13:00,
2013-11-18 03:23:00,27.0,24.0,-100.00,SW,221,6.0,19.0,90,0.00,,,0.00,0.000000,,2013-11-18 10:23:00,
2013-11-18 03:33:00,27.0,24.0,-100.00,SW,221,6.0,19.0,90,0.00,,,0.00,0.000000,,2013-11-18 10:33:00,
2013-11-18 04:12:00,27.0,24.0,-100.00,SSW,213,5.0,16.0,90,0.00,,,0.00,0.000000,,2013-11-18 11:12:00,
2013-11-18 04:22:00,27.0,24.0,-100.00,SSW,213,5.0,16.0,90,0.00,,,0.00,0.000000,,2013-11-18 11:22:00,
2013-11-18 04:32:00,27.0,24.0,-100.00,SSW,213,5.0,16.0,90,0.00,,,0.00,0.000000,,2013-11-18 11:32:00,
2013-11-18 05:12:00,28.0,25.0,-100.00,South,190,5.0,15.0,88,0.00,,,0.00,0.000000,,2013-11-18 12:12:00,
2013-11-18 05:22:00,28.0,25.0,-100.00,South,190,5.0,15.0,88,0.00,,,0.00,0.000000,,2013-11-18 12:22:00,
2013-11-18 05:32:00,28.0,25.0,-100.00,South,190,5.0,15.0,88,0.00,,,0.00,0.000000,,2013-11-18 12:32:00,
2013-11-18 06:11:00,28.0,25.0,-100.00,South,188,4.0,12.0,87,0.00,,,0.00,0.000000,,2013-11-18 13:11:00,
2013-11-18 06:21:00,28.0,25.0,-100.00,South,188,4.0,12.0,87,0.00,,,0.00,0.000000,,2013-11-18 13:21:00,
2013-11-18 06:31:00,28.0,25.0,-100.00,South,188,4.0,12.0,87,0.00,,,0.00,0.000000,,2013-11-18 13:31:00,
2013-11-18 07:11:00,27.0,24.0,-100.00,SE,139,2.0,14.0,88,0.00,,,0.00,0.000000,,2013-11-18 14:11:00,
2013-11-18 07:22:00,27.0,24.0,-100.00,SE,139,2.0,14.0,88,0.00,,,0.00,0.000000,,2013-11-18 14:22:00,
2013-11-18 07:32:00,27.0,24.0,-100.00,SE,139,2.0,14.0,88,0.00,,,0.00,0.000000,,2013-11-18 14:32:00,
2013-11-18 08:11:00,27.0,23.0,-100.00,SW,235,3.0,8.0,86,0.00,,,0.00,0.000000,,2013-11-18 15:11:00,
2013-11-18 08:22:00,27.0,23.0,-100.00,SW,235,3.0,8.0,86,0.00,,,0.00,0.000000,,2013-11-18 15:22:00,
2013-11-18 08:33:00,27.0,23.0,-100.00,SW,235,3.0,8.0,86,0.00,,,0.00,0.000000,,2013-11-18 15:33:00,
2013-11-18 09:12:00,28.0,24.0,-100.00,WNW,298,1.0,10.0,84,0.00,,,0.00,7.000000,,2013-11-18 16:12:00,
2013-11-18 09:23:00,28.0,24.0,-100.00,WNW,298,1.0,10.0,84,0.00,,,0.00,7.000000,,2013-11-18 16:23:00,
2013-11-18 09:33:00,28.0,24.0,-100.00,WNW,298,1.0,10.0,84,0.00,,,0.00,7.000000,,2013-11-18 16:33:00,
2013-11-18 10:12:00,32.0,26.0,-100.00,SW,228,4.0,9.0,78,0.00,,,-99.99,31.000000,,2013-11-18 17:12:00,
2013-11-18 10:22:00,32.0,26.0,-100.00,SW,228,4.0,9.0,78,0.00,,,-99.99,31.000000,,2013-11-18 17:22:00,
2013-11-18 10:32:00,32.0,26.0,-100.00,SW,228,4.0,9.0,78,0.00,,,-99.99,31.000000,,2013-11-18 17:32:00,
2013-11-18 11:12:00,33.0,26.0,-100.00,SW,221,4.0,11.0,75,0.00,,,0.00,83.000000,,2013-11-18 18:12:00,
2013-11-18 11:22:00,33.0,26.0,-100.00,SW,221,4.0,11.0,75,0.00,,,0.00,83.000000,,2013-11-18 18:22:00,
2013-11-18 11:32:00,33.0,26.0,-100.00,SW,221,4.0,11.0,75,0.00,,,0.00,83.000000,,2013-11-18 18:32:00,
2013-11-18 12:11:00,34.0,26.0,-100.00,SW,228,6.0,13.0,72,0.00,,,0.00,99.000000,,2013-11-18 19:11:00,
2013-11-18 12:21:00,34.0,26.0,-100.00,SW,228,6.0,13.0,72,0.00,,,0.00,99.000000,,2013-11-18 19:21:00,
2013-11-18 12:32:00,34.0,26.0,-100.00,SW,228,6.0,13.0,72,0.00,,,0.00,99.000000,,2013-11-18 19:32:00,
2013-11-18 13:11:00,36.0,28.0,-100.00,SW,218,5.0,14.0,72,0.00,,,0.00,96.000000,,2013-11-18 20:11:00,
2013-11-18 13:21:00,36.0,28.0,-100.00,SW,218,5.0,14.0,72,0.00,,,0.00,96.000000,,2013-11-18 20:21:00,
2013-11-18 13:31:00,36.0,28.0,-100.00,SW,218,5.0,14.0,72,0.00,,,0.00,96.000000,,2013-11-18 20:31:00,
2013-11-18 14:11:00,37.0,28.0,-100.00,SW,218,5.0,11.0,71,0.00,,,0.00,177.000000,,2013-11-18 21:11:00,
2013-11-18 14:21:00,37.0,28.0,-100.00,SW,218,5.0,11.0,71,0.00,,,0.00,177.000000,,2013-11-18 21:21:00,
2013-11-18 14:33:00,37.0,28.0,-100.00,SW,218,5.0,11.0,71,0.00,,,0.00,177.000000,,2013-11-18 21:33:00,
2013-11-18 15:13:00,36.0,29.0,-100.00,WSW,241,4.0,10.0,75,0.00,,,0.00,124.000000,,2013-11-18 22:13:00,
2013-11-18 15:22:00,36.0,29.0,-100.00,WSW,241,4.0,10.0,75,0.00,,,0.00,124.000000,,2013-11-18 22:22:00,
2013-11-18 15:33:00,36.0,29.0,-100.00,WSW,241,4.0,10.0,75,0.00,,,0.00,124.000000,,2013-11-18 22:33:00,
2013-11-18 16:12:00,35.0,28.0,-100.00,SW,234,2.0,9.0,74,0.00,,,0.00,77.000000,,2013-11-18 23:12:00,
2013-11-18 16:21:00,35.0,28.0,-100.00,SW,234,2.0,9.0,74,0.00,,,0.00,77.000000,,2013-11-18 23:21:00,
2013-11-18 16:33:00,35.0,28.0,-100.00,SW,234,2.0,9.0,74,0.00,,,0.00,77.000000,,2013-11-18 23:33:00,
2013-11-18 17:11:00,33.0,27.0,-100.00,SSW,213,3.0,8.0,77,0.00,,,0.00,23.000000,,2013-11-19 00:11:00,
2013-11-18 17:21:00,33.0,27.0,-100.00,SSW,213,3.0,8.0,77,0.00,,,0.00,23.000000,,2013-11-19 00:21:00,
2013-11-18 17:32:00,33.0,27.0,-100.00,SSW,213,3.0,8.0,77,0.00,,,0.00,23.000000,,2013-11-19 00:32:00,
2013-11-18 18:11:00,33.0,27.0,-100.00,West,275,2.0,7.0,79,0.00,,,0.00,0.000000,,2013-11-19 01:11:00,
2013-11-18 18:21:00,33.0,27.0,-100.00,West,275,2.0,7.0,79,0.00,,,0.00,0.000000,,2013-11-19 01:21:00,
2013-11-18 18:32:00,33.0,27.0,-100.00,West,275,2.0,7.0,79,0.00,,,0.00,0.000000,,2013-11-19 01:32:00,
2013-11-18 19:11:00,32.0,27.0,-100.00,WSW,242,3.0,10.0,82,0.00,,,0.00,0.000000,,2013-11-19 02:11:00,
2013-11-18 19:22:00,32.0,27.0,-100.00,WSW,242,3.0,10.0,82,0.00,,,0.00,0.000000,,2013-11-19 02:22:00,
2013-11-18 19:32:00,32.0,27.0,-100.00,WSW,242,3.0,10.0,82,0.00,,,0.00,0.000000,,2013-11-19 02:32:00,
2013-11-18 20:11:00,31.0,27.0,-100.00,West,270,1.0,6.0,85,0.00,,,-99.99,0.000000,,2013-11-19 03:11:00,
2013-11-18 20:21:00,31.0,27.0,-100.00,West,270,1.0,6.0,85,0.00,,,-99.99,0.000000,,2013-11-19 03:21:00,
2013-11-18 20:33:00,31.0,27.0,-100.00,West,270,1.0,6.0,85,0.00,,,-99.99,0.000000,,2013-11-19 03:33:00,
2013-11-18 21:13:00,31.0,28.0,-100.00,SW,224,1.0,4.0,89,0.00,,,0.00,0.000000,,2013-11-19 04:13:00,
2013-11-18 21:23:00,31.0,28.0,-100.00,SW,224,1.0,4.0,89,0.00,,,0.00,0.000000,,2013-11-19 04:23:00,
2013-11-18 21:33:00,31.0,28.0,-100.00,SW,224,1.0,4.0,89,0.00,,,0.00,0.000000,,2013-11-19 04:33:00,
2013-11-18 22:12:00,29.0,27.0,-100.00,NNE,31,1.0,5.0,92,0.00,,,0.00,0.000000,,2013-11-19 05:12:00,
2013-11-18 22:22:00,29.0,27.0,-100.00,NNE,31,1.0,5.0,92,0.00,,,0.00,0.000000,,2013-11-19 05:22:00,
2013-11-18 22:32:00,29.0,27.0,-100.00,NNE,31,1.0,5.0,92,0.00,,,0.00,0.000000,,2013-11-19 05:32:00,
2013-11-18 23:12:00,30.0,28.0,-100.00,West,265,1.0,4.0,92,0.00,,,0.00,0.000000,,2013-11-19 06:12:00,
2013-11-18 23:21:00,30.0,28.0,-100.00,West,265,1.0,4.0,92,0.00,,,0.00,0.000000,,2013-11-19 06:21:00,
2013-11-18 23:31:00,30.0,28.0,-100.00,West,265,1.0,4.0,92,0.00,,,0.00,0.000000,,2013-11-19 06:31:00,